Location: �quirre
(50.4736°N, 2.2351°E)
Time: 06:24:00
(UTC+00:00)

Cosmos 2150 Rocket - Pass Details

Date: 07 August 2020
Orbit: 748 x 809 km, 74.0° (Epoch: 23 September)

Event Time Altitude Azimuth Distance (km) Brightness Sun altitude
Rises 03:45:28 0° 192° (SSW) 3,184 6.8 -6.6°
Reaches altitude 10° 03:47:49 10° 189° (S) 2,268 6.0 -6.3°
Maximum altitude 03:52:53 64° 109° (ESE) 840 4.4 -5.6°
Drops below altitude 10° 03:58:03 10° 29° (NNE) 2,312 7.7 -4.9°
Sets 04:00:28 0° 27° (NNE) 3,252 8.4 -4.6°
